| time (UTC) | temp F | wind direction | speed MPH | gust MPH | rain 1hr in | rain 24hr in | rain mn in | humidity % | barometer mb |
| 20260508004218 | 56 | 249 | 2.0 | 2.0 | 0.00 | 0.00 | 0.00 | 32 | 1007.2 |
| 20260508003715 | 56 | 243 | 1.0 | 1.0 | 0.00 | 0.00 | 0.00 | 32 | 1007.2 |
| 20260508003212 | 56 | 258 | 1.0 | 1.0 | 0.00 | 0.00 | 0.00 | 32 | 1007.3 |
| 20260508002708 | 57 | 266 | 2.0 | 2.0 | 0.00 | 0.00 | 0.00 | 31 | 1007.4 |
| 20260508002206 | 57 | 214 | 2.0 | 3.0 | 0.00 | 0.00 | 0.00 | 31 | 1007.2 |
| 20260508001702 | 57 | 254 | 3.0 | 3.0 | 0.00 | 0.00 | 0.00 | 30 | 1007.3 |
| 20260508001158 | 57 | 296 | 3.0 | 5.0 | 0.00 | 0.00 | 0.00 | 31 | 1007.2 |
| 20260508000654 | 57 | 245 | 1.0 | 2.0 | 0.00 | 0.00 | 0.00 | 30 | 1007.3 |
| 20260508000151 | 57 | 273 | 5.0 | 5.0 | 0.00 | 0.00 | 0.00 | 29 | 1007.5 |
| 20260507235648 | 57 | 258 | 3.0 | 3.0 | 0.00 | 0.00 | 0.00 | 30 | 1007.2 |
| 20260507235145 | 57 | 268 | 3.0 | 3.0 | 0.00 | 0.00 | 0.00 | 30 | 1007.4 |
| 20260507234642 | 57 | 290 | 5.0 | 6.0 | 0.00 | 0.00 | 0.00 | 29 | 1007.6 |
| 20260507234138 | 57 | 286 | 3.0 | 3.0 | 0.00 | 0.00 | 0.00 | 30 | 1007.4 |
| 20260507233635 | 57 | 254 | 2.0 | 2.0 | 0.00 | 0.00 | 0.00 | 28 | 1007.4 |
| 20260507233134 | 57 | 274 | 3.0 | 3.0 | 0.00 | 0.00 | 0.00 | 29 | 1007.4 |
| 20260507232630 | 57 | 291 | 5.0 | 6.0 | 0.00 | 0.00 | 0.00 | 29 | 1007.5 |
| 20260507232127 | 57 | 326 | 3.0 | 3.0 | 0.00 | 0.00 | 0.00 | 29 | 1007.5 |
| 20260507231623 | 57 | 275 | 4.0 | 5.0 | 0.00 | 0.00 | 0.00 | 29 | 1007.4 |
| 20260507231121 | 57 | 282 | 2.0 | 2.0 | 0.00 | 0.00 | 0.00 | 29 | 1007.5 |
| 20260507230617 | 57 | 305 | 5.0 | 5.0 | 0.00 | 0.00 | 0.00 | 29 | 1007.4 |
| 20260507230114 | 57 | 293 | 6.0 | 7.0 | 0.00 | 0.00 | 0.00 | 28 | 1007.5 |
| 20260507225609 | 57 | 326 | 6.0 | 7.0 | 0.00 | 0.00 | 0.00 | 30 | 1007.6 |
| 20260507225106 | 57 | 265 | 5.0 | 5.0 | 0.00 | 0.00 | 0.00 | 30 | 1007.7 |
| 20260507224601 | 57 | 260 | 2.0 | 2.0 | 0.00 | 0.00 | 0.00 | 30 | 1007.6 |
| 20260507224058 | 57 | 262 | 3.0 | 3.0 | 0.00 | 0.00 | 0.00 | 28 | 1007.8 |
| 20260507223554 | 57 | 265 | 3.0 | 3.0 | 0.00 | 0.00 | 0.00 | 28 | 1007.6 |
| 20260507223051 | 57 | 281 | 8.0 | 10.0 | 0.00 | 0.00 | 0.00 | 27 | 1007.6 |
| 20260507222548 | 57 | 322 | 5.0 | 6.0 | 0.00 | 0.00 | 0.00 | 28 | 1007.6 |
| 20260507222045 | 57 | 331 | 5.0 | 6.0 | 0.00 | 0.00 | 0.00 | 28 | 1007.7 |
| 20260507221541 | 57 | 336 | 3.0 | 5.0 | 0.00 | 0.00 | 0.00 | 29 | 1008.0 |
| 20260507221038 | 57 | 286 | 7.0 | 8.0 | 0.00 | 0.00 | 0.00 | 28 | 1007.9 |
| 20260507220535 | 57 | 259 | 2.0 | 3.0 | 0.00 | 0.00 | 0.00 | 29 | 1008.1 |
| 20260507220033 | 57 | 299 | 4.0 | 6.0 | 0.00 | 0.00 | 0.00 | 28 | 1008.0 |
| 20260507215529 | 57 | 299 | 5.0 | 6.0 | 0.00 | 0.00 | 0.00 | 29 | 1008.0 |
| 20260507215027 | 57 | 276 | 5.0 | 6.0 | 0.00 | 0.00 | 0.00 | 28 | 1008.0 |
| 20260507214524 | 58 | 22 | 5.0 | 6.0 | 0.00 | 0.00 | 0.00 | 28 | 1008.0 |
| 20260507214020 | 57 | 274 | 3.0 | 5.0 | 0.00 | 0.00 | 0.00 | 28 | 1008.1 |
| 20260507213516 | 57 | 281 | 3.0 | 3.0 | 0.00 | 0.00 | 0.00 | 28 | 1008.1 |
| 20260507213013 | 56 | 238 | 2.0 | 3.0 | 0.00 | 0.00 | 0.00 | 28 | 1008.3 |
| 20260507212508 | 57 | 265 | 3.0 | 3.0 | 0.00 | 0.00 | 0.00 | 28 | 1008.2 |
| 20260507212006 | 57 | 296 | 5.0 | 7.0 | 0.00 | 0.00 | 0.00 | 28 | 1008.4 |
| 20260507211503 | 56 | 289 | 6.0 | 7.0 | 0.00 | 0.00 | 0.00 | 29 | 1008.5 |
| 20260507210959 | 56 | 246 | 3.0 | 5.0 | 0.00 | 0.00 | 0.00 | 30 | 1008.5 |
| 20260507210456 | 56 | 317 | 10.0 | 11.0 | 0.00 | 0.00 | 0.00 | 28 | 1008.5 |
| 20260507205952 | 56 | 300 | 5.0 | 6.0 | 0.00 | 0.00 | 0.00 | 30 | 1008.6 |
| 20260507205450 | 56 | 282 | 2.0 | 2.0 | 0.00 | 0.00 | 0.00 | 27 | 1008.5 |
| 20260507204946 | 55 | 239 | 3.0 | 3.0 | 0.00 | 0.00 | 0.00 | 30 | 1008.6 |
| 20260507204442 | 55 | 274 | 5.0 | 6.0 | 0.00 | 0.00 | 0.00 | 29 | 1008.7 |
| 20260507203940 | 56 | 308 | 6.0 | 8.0 | 0.00 | 0.00 | 0.00 | 28 | 1008.9 |
| 20260507203438 | 56 | 244 | 2.0 | 2.0 | 0.00 | 0.00 | 0.00 | 29 | 1008.8 |
| 20260507202934 | 55 | 282 | 3.0 | 5.0 | 0.00 | 0.00 | 0.00 | 30 | 1009.0 |
| 20260507202431 | 55 | 270 | 3.0 | 5.0 | 0.00 | 0.00 | 0.00 | 29 | 1008.8 |
| 20260507201926 | 55 | 338 | 5.0 | 6.0 | 0.00 | 0.00 | 0.00 | 29 | 1009.2 |
| 20260507201421 | 55 | 228 | 1.0 | 1.0 | 0.00 | 0.00 | 0.00 | 28 | 1009.0 |
| 20260507200919 | 55 | 253 | 5.0 | 6.0 | 0.00 | 0.00 | 0.00 | 29 | 1009.2 |
| 20260507200414 | 55 | 268 | 6.0 | 7.0 | 0.00 | 0.00 | 0.00 | 29 | 1009.4 |
| 20260507195910 | 54 | 255 | 2.0 | 2.0 | 0.00 | 0.00 | 0.00 | 29 | 1009.1 |
| 20260507195408 | 55 | 267 | 2.0 | 3.0 | 0.00 | 0.00 | 0.00 | 28 | 1009.3 |
| 20260507194905 | 55 | 265 | 4.0 | 5.0 | 0.00 | 0.00 | 0.00 | 28 | 1009.4 |
| 20260507194401 | 54 | 234 | 2.0 | 2.0 | 0.00 | 0.00 | 0.00 | 28 | 1009.5 |
| 20260507193857 | 54 | 285 | 5.0 | 6.0 | 0.00 | 0.00 | 0.00 | 30 | 1009.3 |
| 20260507193355 | 53 | 36 | 6.0 | 7.0 | 0.00 | 0.00 | 0.00 | 31 | 1009.4 |
| 20260507192851 | 54 | 300 | 5.0 | 6.0 | 0.00 | 0.00 | 0.00 | 29 | 1009.5 |
| 20260507192347 | 54 | 344 | 4.0 | 5.0 | 0.00 | 0.00 | 0.00 | 28 | 1009.3 |
| 20260507191844 | 53 | 254 | 3.0 | 5.0 | 0.00 | 0.00 | 0.00 | 29 | 1009.4 |
| 20260507191340 | 54 | 272 | 3.0 | 3.0 | 0.00 | 0.00 | 0.00 | 31 | 1009.5 |
| 20260507190837 | 53 | 285 | 4.0 | 6.0 | 0.00 | 0.00 | 0.00 | 31 | 1009.9 |
| 20260507190336 | 53 | 219 | 4.0 | 6.0 | 0.00 | 0.00 | 0.00 | 30 | 1009.8 |
| 20260507185834 | 53 | 209 | 1.0 | 3.0 | 0.00 | 0.00 | 0.00 | 30 | 1009.6 |
| 20260507185331 | 53 | 280 | 3.0 | 3.0 | 0.00 | 0.00 | 0.00 | 29 | 1009.6 |
| 20260507184828 | 53 | 261 | 4.0 | 5.0 | 0.00 | 0.00 | 0.00 | 30 | 1009.8 |
| 20260507184326 | 53 | 221 | 0.0 | 1.0 | 0.00 | 0.00 | 0.00 | 30 | 1009.9 |
| 20260507183822 | 53 | 260 | 5.0 | 6.0 | 0.00 | 0.00 | 0.00 | 30 | 1010.0 |
| 20260507183319 | 53 | 35 | 5.0 | 8.0 | 0.00 | 0.00 | 0.00 | 32 | 1009.8 |
| 20260507182817 | 53 | 24 | 8.0 | 11.0 | 0.00 | 0.00 | 0.00 | 32 | 1009.6 |
| 20260507182312 | 52 | 202 | 1.0 | 2.0 | 0.00 | 0.00 | 0.00 | 30 | 1010.0 |
| 20260507181809 | 53 | 3 | 2.0 | 3.0 | 0.00 | 0.00 | 0.00 | 30 | 1010.1 |
| 20260507181305 | 52 | 355 | 8.0 | 11.0 | 0.00 | 0.00 | 0.00 | 32 | 1009.9 |
| 20260507180802 | 52 | 6 | 5.0 | 6.0 | 0.00 | 0.00 | 0.00 | 30 | 1009.9 |
| 20260507180259 | 52 | 146 | 2.0 | 2.0 | 0.00 | 0.00 | 0.00 | 30 | 1010.1 |
| 20260507175754 | 51 | 301 | 3.0 | 5.0 | 0.00 | 0.00 | 0.00 | 31 | 1010.0 |
| 20260507175251 | 51 | 21 | 4.0 | 7.0 | 0.00 | 0.00 | 0.00 | 34 | 1010.2 |
| 20260507174748 | 52 | 230 | 4.0 | 5.0 | 0.00 | 0.00 | 0.00 | 31 | 1010.4 |
| 20260507174247 | 51 | 304 | 3.0 | 3.0 | 0.00 | 0.00 | 0.00 | 32 | 1010.2 |
| 20260507173744 | 51 | 41 | 3.0 | 3.0 | 0.00 | 0.00 | 0.00 | 32 | 1010.4 |
| 20260507173241 | 51 | 277 | 3.0 | 3.0 | 0.00 | 0.00 | 0.00 | 33 | 1010.4 |
| 20260507172737 | 51 | 152 | 1.0 | 1.0 | 0.00 | 0.00 | 0.00 | 33 | 1010.4 |
| 20260507172234 | 51 | 278 | 3.0 | 5.0 | 0.00 | 0.00 | 0.00 | 33 | 1010.5 |
| 20260507171734 | 50 | 253 | 0.0 | 1.0 | 0.00 | 0.00 | 0.00 | 33 | 1010.4 |
| 20260507171232 | 50 | 40 | 4.0 | 6.0 | 0.00 | 0.00 | 0.00 | 33 | 1010.4 |
| 20260507170729 | 50 | 355 | 3.0 | 5.0 | 0.00 | 0.00 | 0.00 | 33 | 1010.7 |
| 20260507170226 | 51 | 310 | 5.0 | 6.0 | 0.00 | 0.00 | 0.00 | 33 | 1010.5 |
| 20260507165721 | 50 | 333 | 5.0 | 6.0 | 0.00 | 0.00 | 0.00 | 32 | 1010.6 |
| 20260507165218 | 51 | 216 | 0.0 | 1.0 | 0.00 | 0.00 | 0.00 | 30 | 1010.7 |
| 20260507164714 | 50 | 81 | 4.0 | 7.0 | 0.00 | 0.00 | 0.00 | 35 | 1010.9 |
| 20260507164211 | 49 | 223 | 0.0 | 1.0 | 0.00 | 0.00 | 0.00 | 34 | 1010.7 |
| 20260507163708 | 49 | 288 | 5.0 | 5.0 | 0.00 | 0.00 | 0.00 | 34 | 1010.9 |
| 20260507163206 | 49 | 256 | 0.0 | 2.0 | 0.00 | 0.00 | 0.00 | 38 | 1010.8 |
| 20260507162702 | 49 | 47 | 2.0 | 3.0 | 0.00 | 0.00 | 0.00 | 37 | 1010.9 |
| 20260507162158 | 48 | 216 | 1.0 | 1.0 | 0.00 | 0.00 | 0.00 | 36 | 1011.0 |
| 20260507161654 | 48 | 68 | 1.0 | 2.0 | 0.00 | 0.00 | 0.00 | 35 | 1011.0 |
| 20260507161151 | 49 | 52 | 3.0 | 6.0 | 0.00 | 0.00 | 0.00 | 35 | 1011.1 |
| 20260507160647 | 48 | 215 | 0.0 | 0.0 | 0.00 | 0.00 | 0.00 | 37 | 1011.3 |
| 20260507160144 | 48 | 245 | 2.0 | 2.0 | 0.00 | 0.00 | 0.00 | 38 | 1011.0 |
| 20260507155639 | 47 | 224 | 1.0 | 1.0 | 0.00 | 0.00 | 0.00 | 35 | 1011.1 |
| 20260507155136 | 47 | 41 | 3.0 | 3.0 | 0.00 | 0.00 | 0.00 | 31 | 1011.1 |
| 20260507154633 | 48 | 352 | 3.0 | 5.0 | 0.00 | 0.00 | 0.00 | 37 | 1011.2 |
| 20260507154131 | 47 | 295 | 3.0 | 5.0 | 0.00 | 0.00 | 0.00 | 41 | 1011.2 |
| 20260507153627 | 47 | 224 | 0.0 | 1.0 | 0.00 | 0.00 | 0.00 | 42 | 1011.2 |
| 20260507153123 | 47 | 139 | 1.0 | 1.0 | 0.00 | 0.00 | 0.00 | 41 | 1011.3 |
| 20260507152620 | 46 | 193 | 0.0 | 1.0 | 0.00 | 0.00 | 0.00 | 43 | 1011.2 |
| 20260507152116 | 47 | 216 | 0.0 | 1.0 | 0.00 | 0.00 | 0.00 | 41 | 1011.1 |
| 20260507151612 | 46 | 295 | 3.0 | 3.0 | 0.00 | 0.00 | 0.00 | 45 | 1011.2 |
| 20260507151109 | 46 | 291 | 3.0 | 3.0 | 0.00 | 0.00 | 0.00 | 43 | 1011.2 |
| 20260507150606 | 46 | 239 | 2.0 | 2.0 | 0.00 | 0.00 | 0.00 | 45 | 1011.1 |
| 20260507145558 | 46 | 244 | 2.0 | 2.0 | 0.00 | 0.00 | 0.00 | 45 | 1011.3 |
| 20260507145056 | 46 | 251 | 0.0 | 0.0 | 0.00 | 0.00 | 0.00 | 45 | 1011.5 |
| 20260507144552 | 46 | 261 | 1.0 | 1.0 | 0.00 | 0.00 | 0.00 | 45 | 1011.4 |
| 20260507144050 | 45 | 212 | 0.0 | 0.0 | 0.00 | 0.00 | 0.00 | 46 | 1011.3 |
| 20260507143546 | 44 | 196 | 2.0 | 2.0 | 0.00 | 0.00 | 0.00 | 47 | 1011.2 |
| 20260507143044 | 44 | 212 | 1.0 | 1.0 | 0.00 | 0.00 | 0.00 | 46 | 1011.4 |
| 20260507142539 | 44 | 243 | 1.0 | 1.0 | 0.00 | 0.00 | 0.00 | 46 | 1011.4 |
| 20260507142036 | 44 | 258 | 2.0 | 2.0 | 0.00 | 0.00 | 0.00 | 48 | 1011.4 |
| 20260507141532 | 44 | 205 | 0.0 | 0.0 | 0.00 | 0.00 | 0.00 | 47 | 1011.5 |
| 20260507141029 | 43 | 266 | 3.0 | 3.0 | 0.00 | 0.00 | 0.00 | 46 | 1011.3 |
| 20260507140526 | 43 | 244 | 0.0 | 0.0 | 0.00 | 0.00 | 0.00 | 49 | 1011.5 |
| 20260507140024 | 43 | 292 | 1.0 | 2.0 | 0.00 | 0.00 | 0.00 | 50 | 1011.7 |
| 20260507135520 | 42 | 217 | 0.0 | 1.0 | 0.00 | 0.00 | 0.00 | 50 | 1011.5 |
| 20260507135018 | 42 | 222 | 0.0 | 0.0 | 0.00 | 0.00 | 0.00 | 53 | 1011.6 |
| 20260507134514 | 42 | 251 | 1.0 | 1.0 | 0.00 | 0.00 | 0.00 | 55 | 1011.5 |
| 20260507134009 | 42 | 211 | 2.0 | 2.0 | 0.00 | 0.00 | 0.00 | 58 | 1011.5 |
| 20260507133506 | 42 | 240 | 0.0 | 1.0 | 0.00 | 0.00 | 0.00 | 59 | 1011.6 |
| 20260507133005 | 41 | 268 | 3.0 | 3.0 | 0.00 | 0.00 | 0.00 | 61 | 1011.6 |
| 20260507132500 | 41 | 243 | 1.0 | 1.0 | 0.00 | 0.00 | 0.00 | 59 | 1011.7 |
| 20260507131957 | 41 | 219 | 0.0 | 1.0 | 0.00 | 0.00 | 0.00 | 61 | 1011.7 |
| 20260507131454 | 40 | 263 | 1.0 | 1.0 | 0.00 | 0.00 | 0.00 | 65 | 1011.7 |
| 20260507130951 | 40 | 237 | 1.0 | 1.0 | 0.00 | 0.00 | 0.00 | 66 | 1011.7 |
| 20260507130448 | 39 | 245 | 1.0 | 1.0 | 0.00 | 0.00 | 0.00 | 68 | 1011.8 |
| 20260507125946 | 38 | 235 | 0.0 | 1.0 | 0.00 | 0.00 | 0.00 | 72 | 1011.5 |
| 20260507125444 | 38 | 226 | 0.0 | 0.0 | 0.00 | 0.00 | 0.00 | 72 | 1011.8 |
| 20260507124941 | 37 | 218 | 0.0 | 0.0 | 0.00 | 0.00 | 0.00 | 73 | 1011.8 |
| 20260507124437 | 36 | 217 | 0.0 | 0.0 | 0.00 | 0.00 | 0.00 | 76 | 1011.7 |
| 20260507123936 | 34 | 233 | 0.0 | 0.0 | 0.00 | 0.00 | 0.00 | 83 | 1012.0 |
| 20260507123433 | 32 | 216 | 0.0 | 0.0 | 0.00 | 0.00 | 0.00 | 90 | 1011.8 |
| 20260507122929 | 31 | 209 | 0.0 | 0.0 | 0.00 | 0.00 | 0.00 | 91 | 1012.0 |
| 20260507122424 | 31 | 209 | 0.0 | 0.0 | 0.00 | 0.00 | 0.00 | 91 | 1011.9 |
| 20260507121921 | 30 | 208 | 0.0 | 0.0 | 0.00 | 0.00 | 0.00 | 92 | 1011.9 |
| 20260507121416 | 29 | 209 | 0.0 | 0.0 | 0.00 | 0.00 | 0.00 | 92 | 1011.8 |
| 20260507120913 | 29 | 207 | 0.0 | 0.0 | 0.00 | 0.00 | 0.00 | 92 | 1011.8 |
| 20260507120409 | 29 | 202 | 0.0 | 0.0 | 0.00 | 0.00 | 0.00 | 91 | 1011.8 |
| 20260507115906 | 28 | 207 | 0.0 | 0.0 | 0.00 | 0.00 | 0.00 | 91 | 1011.8 |
| 20260507115402 | 28 | 210 | 0.0 | 0.0 | 0.00 | 0.00 | 0.00 | 91 | 1011.8 |
| 20260507114858 | 27 | 211 | 0.0 | 0.0 | 0.00 | 0.00 | 0.00 | 91 | 1011.8 |
| 20260507114355 | 28 | 212 | 0.0 | 0.0 | 0.00 | 0.00 | 0.00 | 91 | 1011.7 |
| 20260507113852 | 28 | 212 | 0.0 | 0.0 | 0.00 | 0.00 | 0.00 | 91 | 1011.8 |
| 20260507113349 | 27 | 211 | 0.0 | 0.0 | 0.00 | 0.00 | 0.00 | 91 | 1011.8 |
| 20260507112846 | 27 | 212 | 0.0 | 0.0 | 0.00 | 0.00 | 0.00 | 90 | 1011.9 |
| 20260507112343 | 27 | 212 | 0.0 | 0.0 | 0.00 | 0.00 | 0.00 | 90 | 1011.8 |
| 20260507111841 | 28 | 212 | 0.0 | 0.0 | 0.00 | 0.00 | 0.00 | 90 | 1011.9 |
| 20260507111338 | 28 | 211 | 0.0 | 0.0 | 0.00 | 0.00 | 0.00 | 90 | 1011.7 |
| 20260507110834 | 28 | 210 | 0.0 | 0.0 | 0.00 | 0.00 | 0.00 | 90 | 1011.8 |
| 20260507110330 | 28 | 208 | 0.0 | 0.0 | 0.00 | 0.00 | 0.00 | 89 | 1011.8 |
| 20260507105827 | 28 | 210 | 0.0 | 0.0 | 0.00 | 0.00 | 0.00 | 89 | 1011.9 |
| 20260507105324 | 28 | 207 | 0.0 | 0.0 | 0.00 | 0.00 | 0.00 | 89 | 1011.8 |
| 20260507104821 | 28 | 205 | 0.0 | 0.0 | 0.00 | 0.00 | 0.00 | 89 | 1011.8 |
| 20260507104317 | 28 | 211 | 0.0 | 0.0 | 0.00 | 0.00 | 0.00 | 87 | 1011.8 |
| 20260507103813 | 28 | 210 | 0.0 | 0.0 | 0.00 | 0.00 | 0.00 | 87 | 1011.9 |
| 20260507103309 | 29 | 208 | 0.0 | 0.0 | 0.00 | 0.00 | 0.00 | 87 | 1011.9 |
| 20260507102806 | 29 | 207 | 0.0 | 0.0 | 0.00 | 0.00 | 0.00 | 86 | 1011.8 |
| 20260507102306 | 29 | 202 | 0.0 | 0.0 | 0.00 | 0.00 | 0.00 | 86 | 1011.8 |
| 20260507101759 | 29 | 203 | 0.0 | 0.0 | 0.00 | 0.00 | 0.00 | 86 | 1012.0 |
| 20260507101254 | 29 | 204 | 0.0 | 0.0 | 0.00 | 0.00 | 0.00 | 86 | 1011.8 |
| 20260507100751 | 29 | 201 | 0.0 | 0.0 | 0.00 | 0.00 | 0.00 | 86 | 1011.9 |
| 20260507100249 | 29 | 204 | 0.0 | 0.0 | 0.00 | 0.00 | 0.00 | 87 | 1012.0 |
| 20260507095747 | 29 | 204 | 0.0 | 0.0 | 0.00 | 0.00 | 0.00 | 87 | 1012.0 |
| 20260507095243 | 30 | 204 | 0.0 | 0.0 | 0.00 | 0.00 | 0.00 | 86 | 1012.0 |
| 20260507094740 | 30 | 205 | 0.0 | 0.0 | 0.00 | 0.00 | 0.00 | 86 | 1011.8 |
| 20260507094237 | 30 | 208 | 0.0 | 0.0 | 0.00 | 0.00 | 0.00 | 85 | 1011.8 |
| 20260507093734 | 30 | 207 | 0.0 | 0.0 | 0.00 | 0.00 | 0.00 | 84 | 1012.2 |
| 20260507093233 | 31 | 206 | 0.0 | 0.0 | 0.00 | 0.00 | 0.00 | 83 | 1012.0 |
| 20260507092730 | 31 | 209 | 0.0 | 0.0 | 0.00 | 0.00 | 0.00 | 82 | 1012.0 |
| 20260507092226 | 31 | 209 | 0.0 | 0.0 | 0.00 | 0.00 | 0.00 | 82 | 1012.1 |
| 20260507091723 | 31 | 218 | 0.0 | 0.0 | 0.00 | 0.00 | 0.00 | 83 | 1012.0 |
| 20260507091219 | 31 | 207 | 0.0 | 0.0 | 0.00 | 0.00 | 0.00 | 84 | 1012.1 |
| 20260507090720 | 30 | 215 | 0.0 | 0.0 | 0.00 | 0.00 | 0.00 | 85 | 1012.0 |
| 20260507090217 | 30 | 211 | 0.0 | 0.0 | 0.00 | 0.00 | 0.00 | 85 | 1012.1 |
| 20260507085714 | 31 | 206 | 0.0 | 0.0 | 0.00 | 0.00 | 0.00 | 84 | 1012.0 |
| 20260507085211 | 31 | 208 | 0.0 | 0.0 | 0.00 | 0.00 | 0.00 | 83 | 1012.0 |
| 20260507084708 | 31 | 207 | 0.0 | 0.0 | 0.00 | 0.00 | 0.00 | 83 | 1012.0 |
| 20260507084204 | 31 | 205 | 0.0 | 0.0 | 0.00 | 0.00 | 0.00 | 84 | 1012.0 |
| 20260507083701 | 30 | 206 | 0.0 | 0.0 | 0.00 | 0.00 | 0.00 | 84 | 1012.0 |
| 20260507083158 | 31 | 208 | 0.0 | 0.0 | 0.00 | 0.00 | 0.00 | 84 | 1011.8 |
| 20260507082654 | 30 | 210 | 0.0 | 0.0 | 0.00 | 0.00 | 0.00 | 85 | 1012.0 |
| 20260507082150 | 30 | 213 | 0.0 | 0.0 | 0.00 | 0.00 | 0.00 | 84 | 1011.9 |
| 20260507081647 | 30 | 208 | 0.0 | 0.0 | 0.00 | 0.00 | 0.00 | 84 | 1011.9 |
| 20260507081143 | 31 | 206 | 0.0 | 0.0 | 0.00 | 0.00 | 0.00 | 84 | 1011.9 |
| 20260507080640 | 31 | 202 | 0.0 | 0.0 | 0.00 | 0.00 | 0.00 | 84 | 1012.1 |
| 20260507080136 | 30 | 206 | 0.0 | 0.0 | 0.00 | 0.00 | 0.00 | 85 | 1012.0 |
| 20260507075631 | 30 | 200 | 0.0 | 0.0 | 0.00 | 0.00 | 0.00 | 86 | 1012.0 |
| 20260507075128 | 30 | 207 | 0.0 | 0.0 | 0.00 | 0.00 | 0.00 | 87 | 1012.2 |
| 20260507074624 | 30 | 211 | 0.0 | 0.0 | 0.00 | 0.00 | 0.00 | 87 | 1012.0 |
| 20260507074123 | 30 | 213 | 0.0 | 0.0 | 0.00 | 0.00 | 0.00 | 87 | 1012.1 |
| 20260507073618 | 30 | 213 | 0.0 | 0.0 | 0.00 | 0.00 | 0.00 | 85 | 1012.1 |
| 20260507073115 | 30 | 215 | 0.0 | 0.0 | 0.00 | 0.00 | 0.00 | 84 | 1012.0 |
| 20260507072613 | 31 | 213 | 0.0 | 0.0 | 0.00 | 0.00 | 0.00 | 84 | 1012.0 |
| 20260507072110 | 31 | 206 | 0.0 | 0.0 | 0.00 | 0.00 | 0.00 | 84 | 1011.9 |
| 20260507071607 | 31 | 205 | 0.0 | 0.0 | 0.00 | 0.00 | 0.00 | 83 | 1012.2 |
| 20260507071103 | 31 | 207 | 0.0 | 0.0 | 0.00 | 0.00 | 0.00 | 83 | 1012.2 |
| 20260507070601 | 31 | 208 | 0.0 | 0.0 | 0.00 | 0.00 | 0.00 | 83 | 1012.3 |
| 20260507070058 | 31 | 208 | 0.0 | 0.0 | 0.00 | 0.00 | 0.00 | 82 | 1012.3 |
| 20260507065554 | 32 | 210 | 0.0 | 0.0 | 0.00 | 0.00 | 0.00 | 82 | 1012.3 |
| 20260507065051 | 32 | 207 | 0.0 | 0.0 | 0.00 | 0.00 | 0.00 | 83 | 1012.4 |
| 20260507064549 | 32 | 208 | 0.0 | 0.0 | 0.00 | 0.00 | 0.00 | 82 | 1012.4 |
| 20260507064048 | 32 | 204 | 0.0 | 0.0 | 0.00 | 0.00 | 0.00 | 82 | 1012.4 |
| 20260507063544 | 32 | 213 | 0.0 | 0.0 | 0.00 | 0.00 | 0.00 | 82 | 1012.7 |
| 20260507063042 | 32 | 211 | 0.0 | 0.0 | 0.00 | 0.00 | 0.00 | 81 | 1012.4 |
| 20260507062538 | 32 | 208 | 0.0 | 0.0 | 0.00 | 0.00 | 0.00 | 83 | 1012.4 |
| 20260507062036 | 32 | 204 | 0.0 | 0.0 | 0.00 | 0.00 | 0.00 | 83 | 1012.6 |
| 20260507061533 | 33 | 206 | 0.0 | 0.0 | 0.00 | 0.00 | 0.00 | 83 | 1012.4 |
| 20260507061031 | 33 | 204 | 0.0 | 0.0 | 0.00 | 0.00 | 0.00 | 83 | 1012.8 |
| 20260507060529 | 33 | 206 | 0.0 | 0.0 | 0.00 | 0.00 | 0.00 | 83 | 1012.8 |
| 20260507060025 | 33 | 205 | 0.0 | 0.0 | 0.00 | 0.00 | 0.00 | 83 | 1012.8 |
| 20260507055520 | 33 | 208 | 0.0 | 0.0 | 0.00 | 0.00 | 0.00 | 81 | 1012.8 |
| 20260507055017 | 33 | 208 | 0.0 | 0.0 | 0.00 | 0.00 | 0.00 | 80 | 1012.9 |
| 20260507054513 | 33 | 206 | 0.0 | 0.0 | 0.00 | 0.00 | 0.00 | 80 | 1012.7 |
| 20260507054010 | 34 | 206 | 0.0 | 0.0 | 0.00 | 0.00 | 0.00 | 80 | 1012.9 |
| 20260507053508 | 34 | 205 | 0.0 | 0.0 | 0.00 | 0.00 | 0.00 | 80 | 1013.1 |
| 20260507053006 | 34 | 208 | 0.0 | 0.0 | 0.00 | 0.00 | 0.00 | 78 | 1012.8 |
| 20260507052504 | 35 | 208 | 0.0 | 0.0 | 0.00 | 0.00 | 0.00 | 78 | 1013.0 |
| 20260507052000 | 35 | 206 | 0.0 | 0.0 | 0.00 | 0.00 | 0.00 | 77 | 1013.0 |
| 20260507051458 | 35 | 209 | 0.0 | 0.0 | 0.00 | 0.00 | 0.00 | 77 | 1013.0 |
| 20260507050954 | 36 | 209 | 0.0 | 0.0 | 0.00 | 0.00 | 0.00 | 77 | 1012.8 |
| 20260507050450 | 36 | 209 | 0.0 | 0.0 | 0.00 | 0.00 | 0.00 | 75 | 1012.9 |
| 20260507045948 | 36 | 209 | 0.0 | 0.0 | 0.00 | 0.00 | 0.00 | 74 | 1013.0 |
| 20260507045444 | 37 | 208 | 0.0 | 0.0 | 0.00 | 0.00 | 0.00 | 74 | 1012.9 |
| 20260507044941 | 37 | 208 | 0.0 | 0.0 | 0.00 | 0.00 | 0.00 | 72 | 1013.0 |
| 20260507044438 | 38 | 215 | 0.0 | 0.0 | 0.00 | 0.00 | 0.00 | 69 | 1013.0 |
| 20260507043934 | 38 | 217 | 0.0 | 0.0 | 0.00 | 0.00 | 0.00 | 66 | 1013.4 |
| 20260507043430 | 37 | 217 | 0.0 | 0.0 | 0.00 | 0.00 | 0.00 | 65 | 1013.2 |
| 20260507042927 | 37 | 221 | 0.0 | 0.0 | 0.00 | 0.00 | 0.00 | 72 | 1013.1 |
| 20260507042424 | 37 | 214 | 0.0 | 0.0 | 0.00 | 0.00 | 0.00 | 73 | 1013.5 |
| 20260507041919 | 37 | 218 | 0.0 | 0.0 | 0.00 | 0.00 | 0.00 | 69 | 1013.1 |
| 20260507041416 | 37 | 208 | 0.0 | 0.0 | 0.00 | 0.00 | 0.00 | 69 | 1013.1 |
| 20260507040914 | 37 | 213 | 0.0 | 0.0 | 0.00 | 0.00 | 0.00 | 70 | 1013.2 |
| 20260507040409 | 38 | 211 | 0.0 | 0.0 | 0.00 | 0.00 | 0.00 | 68 | 1013.4 |
| 20260507035905 | 37 | 217 | 0.0 | 0.0 | 0.00 | 0.00 | 0.00 | 68 | 1013.4 |
| 20260507035402 | 38 | 220 | 0.0 | 0.0 | 0.00 | 0.00 | 0.00 | 65 | 1013.5 |
| 20260507034859 | 37 | 219 | 0.0 | 0.0 | 0.00 | 0.00 | 0.00 | 64 | 1013.4 |
| 20260507034355 | 37 | 216 | 0.0 | 0.0 | 0.00 | 0.00 | 0.00 | 68 | 1013.6 |
| 20260507033853 | 36 | 218 | 0.0 | 0.0 | 0.00 | 0.00 | 0.00 | 65 | 1013.5 |
| 20260507033351 | 36 | 216 | 0.0 | 0.0 | 0.00 | 0.00 | 0.00 | 72 | 1013.5 |
| 20260507032848 | 36 | 216 | 0.0 | 0.0 | 0.00 | 0.00 | 0.00 | 70 | 1013.4 |
| 20260507032345 | 36 | 209 | 0.0 | 0.0 | 0.00 | 0.00 | 0.00 | 67 | 1013.4 |
| 20260507031841 | 36 | 209 | 0.0 | 0.0 | 0.00 | 0.00 | 0.00 | 73 | 1013.4 |
| 20260507031338 | 36 | 213 | 0.0 | 0.0 | 0.00 | 0.00 | 0.00 | 69 | 1013.6 |
| 20260507030834 | 36 | 217 | 0.0 | 0.0 | 0.00 | 0.00 | 0.00 | 67 | 1013.6 |
| 20260507030332 | 37 | 205 | 0.0 | 0.0 | 0.00 | 0.00 | 0.00 | 69 | 1013.5 |
| 20260507025828 | 36 | 208 | 0.0 | 0.0 | 0.00 | 0.00 | 0.00 | 67 | 1013.6 |
| 20260507025326 | 36 | 211 | 0.0 | 0.0 | 0.00 | 0.00 | 0.00 | 70 | 1013.6 |
| 20260507024824 | 37 | 211 | 0.0 | 0.0 | 0.00 | 0.00 | 0.00 | 70 | 1013.5 |
| 20260507024321 | 37 | 214 | 0.0 | 0.0 | 0.00 | 0.00 | 0.00 | 68 | 1013.7 |
| 20260507023816 | 38 | 213 | 0.0 | 0.0 | 0.00 | 0.00 | 0.00 | 66 | 1013.7 |
| 20260507023313 | 39 | 206 | 0.0 | 0.0 | 0.00 | 0.00 | 0.00 | 63 | 1013.5 |
| 20260507022811 | 39 | 205 | 0.0 | 0.0 | 0.00 | 0.00 | 0.00 | 59 | 1013.5 |
| 20260507022307 | 40 | 211 | 0.0 | 0.0 | 0.00 | 0.00 | 0.00 | 56 | 1013.5 |
| 20260507021803 | 40 | 217 | 0.0 | 0.0 | 0.00 | 0.00 | 0.00 | 55 | 1013.6 |
| 20260507021259 | 41 | 218 | 0.0 | 0.0 | 0.00 | 0.00 | 0.00 | 55 | 1013.8 |
| 20260507020757 | 41 | 232 | 0.0 | 0.0 | 0.00 | 0.00 | 0.00 | 54 | 1013.5 |
| 20260507020253 | 41 | 218 | 0.0 | 0.0 | 0.00 | 0.00 | 0.00 | 53 | 1013.6 |
| 20260507015751 | 41 | 232 | 0.0 | 0.0 | 0.00 | 0.00 | 0.00 | 53 | 1013.6 |
| 20260507015248 | 41 | 242 | 0.0 | 0.0 | 0.00 | 0.00 | 0.00 | 53 | 1013.7 |
| 20260507014745 | 41 | 222 | 0.0 | 0.0 | 0.00 | 0.00 | 0.00 | 54 | 1013.4 |
| 20260507014241 | 41 | 199 | 0.0 | 0.0 | 0.00 | 0.00 | 0.00 | 53 | 1013.4 |
| 20260507013738 | 42 | 243 | 1.0 | 1.0 | 0.00 | 0.00 | 0.00 | 53 | 1013.5 |
| 20260507013235 | 41 | 233 | 1.0 | 1.0 | 0.00 | 0.00 | 0.00 | 52 | 1013.5 |
| 20260507012732 | 41 | 233 | 0.0 | 0.0 | 0.00 | 0.00 | 0.00 | 52 | 1013.6 |
| 20260507012228 | 42 | 230 | 0.0 | 1.0 | 0.00 | 0.00 | 0.00 | 52 | 1013.4 |
| 20260507011726 | 42 | 238 | 1.0 | 1.0 | 0.00 | 0.00 | 0.00 | 52 | 1013.5 |
| 20260507011222 | 42 | 208 | 1.0 | 2.0 | 0.00 | 0.00 | 0.00 | 51 | 1013.8 |
| 20260507010721 | 42 | 251 | 1.0 | 1.0 | 0.00 | 0.00 | 0.00 | 50 | 1013.7 |
| 20260507010218 | 42 | 269 | 1.0 | 1.0 | 0.00 | 0.00 | 0.00 | 50 | 1013.5 |
| 20260507005716 | 42 | 272 | 2.0 | 2.0 | 0.00 | 0.00 | 0.00 | 50 | 1013.8 |
| 20260507005212 | 43 | 316 | 5.0 | 6.0 | 0.00 | 0.00 | 0.00 | 49 | 1013.7 |
| 20260507004708 | 43 | 270 | 2.0 | 2.0 | 0.00 | 0.00 | 0.00 | 49 | 1013.8 |